Regional Weather Roundup
Issued by NWS

Home | Current Version | Previous Version | Text Only | Print | Product List | Glossary Off
Versions: 1 2 3 4 5 6 7 8 9 10 11 12 13 14 15 16 17 18 19 20 21 22 23 24 25 26 27 28 29 30 31 32 33 34 35 36 37 38 39 40 41 42 43 44 45 46 47 48 49 50

000
ASUS43 KLMK 250110
RWRKY
KENTUCKY REGIONAL WEATHER ROUNDUP
NATIONAL WEATHER SERVICE LOUISVILLE KY
900 PM EDT SUN JUL 24 2016

NOTE "FAIR" INDICATES FEW OR NO CLOUDS BELOW 12,000 FEET
WITH NO SIGNIFICANT WEATHER AND/OR OBSTRUCTIONS TO VISIBILITY.

KYZ001>023-026-027-061>063-070>075-250200-
WESTERN AND SOUTH CENTRAL KENTUCKY

CITY           SKY/WX    TMP DP  RH WIND       PRES   REMARKS
PADUCAH        CLEAR     85  78  80 SE3       29.94S HX  96
HENDERSON      CLEAR     84  79  84 S3        29.94S HX  96
OWENSBORO      CLEAR     87  79  77 S5        29.96S HX 101
HOPKINSVILLE   CLOUDY    88  75  65 S3        29.98R HX  98
BOWLING GREEN  CLEAR     88  77  69 E3        29.99R HX 100
GLASGOW        CLOUDY    83  79  88 CALM      30.00S HX  94
$$

KYZ024-025-028>034-038-045-046-053-250200-
NORTH CENTRAL KENTUCKY

CITY           SKY/WX    TMP DP  RH WIND       PRES   REMARKS
LOUISVILLE/SDF MOCLDY    90  73  57 SW6       29.96S HX  98
LOUISVILLE/LOU CLEAR     89  74  60 S5        29.97S HX  98
FORT KNOX      PTCLDY    85  77  78 SW3       29.97S HX  95
$$

KYZ035>037-039>044-047>052-055>060-089>105-250200-
NORTHEAST KENTUCKY

CITY           SKY/WX    TMP DP  RH WIND       PRES   REMARKS
LEXINGTON      CLEAR     86  73  65 S5        30.01R HX  93
COVINGTON      PTCLDY    86  76  71 S5        29.98  HX  96
FRANKFORT      CLEAR     86  75  69 NW3       29.98S HX  95
$$

KYZ054-064>069-076>088-106>120-250200-
SOUTHEAST KENTUCKY

CITY           SKY/WX    TMP DP  RH WIND       PRES   REMARKS
JACKSON        CLOUDY    85  73  67 CALM      30.04S HX  91
LONDON         CLOUDY    86  71  60 CALM      30.04R HX  91
SOMERSET       CLEAR     82  72  69 CALM      30.04R
MIDDLESBORO    PTCLDY    82  75  78 W3        30.05R
MONTICELLO     CLOUDY   N/A N/A N/A NE7       30.05R
$$





USA.gov is the U.S. government's official web portal to all federal, state and local government web resources and services.